GFSNIL_sfc_dewp_000.txt.gz
Dewpoint
40 40 37 37 37 36 36 38 41 40 39 40 40 40 41 40 38 39 39 39 39 39
42 40 39 38 37 36 39 37 39 40 38 35 36 36 37 37 38 37 37 37 37 37
39 38 37 37 37 37 38 39 37 35 34 34 36 38 38 37 36 36 35 32 31 29
38 36 36 36 37 37 38 35 34 34 34 35 37 38 38 36 34 30 30 29 28 27
36 35 35 36 37 37 37 37 36 37 38 37 37 34 32 31 29 27 25 26 26 25
36 36 36 37 37 38 38 38 39 37 36 36 34 33 29 26 25 26 26 25 24 23
36 38 38 38 36 35 34 33 32 30 30 30 27 25 24 23 24 24 23 24 25 23
33 31 31 30 30 29 28 24 23 23 23 24 22 18 26 22 23 24 24 24 23 24
30 28 27 27 26 24 22 21 22 22 22 23 18 29 28 28 24 23 21 21 21 21
29 25 24 21 19 20 22 23 23 23 23 24 24 25 25 25 22 21 21 21 21 18
26 23 20 19 19 21 22 22 22 23 23 22 19 24 23 23 22 23 23 21 21 19
25 22 19 19 20 21 21 22 22 22 22 21 21 24 22 22 24 23 22 20 20 21
25 22 19 21 22 23 22 21 22 24 24 24 24 23 22 22 23 25 24 24 23 25
24 20 21 22 22 23 22 24 28 30 27 25 24 22 21 21 24 25 23 22 23 25

GFSNIL_sfc_dewp_003.txt.gz
Dewpoint
40 39 38 38 37 36 36 37 38 39 39 39 38 41 42 39 40 39 39 38 37 38
40 39 38 38 38 36 38 34 37 38 37 39 39 40 40 39 39 40 39 39 38 37
38 38 37 36 36 36 36 36 37 39 38 38 39 38 38 37 38 37 37 35 33 32
37 36 35 35 36 37 38 37 39 39 39 38 38 38 38 36 35 35 36 34 32 31
34 34 34 35 36 36 37 38 38 38 37 38 39 37 36 35 31 30 29 29 29 29
33 33 34 34 34 34 34 33 33 32 33 31 30 28 27 26 28 28 27 26 26 24
32 32 31 30 30 29 28 26 23 23 23 23 21 21 21 21 23 22 21 23 23 23
30 29 28 27 27 26 24 21 20 21 22 22 21 20 26 24 24 23 22 25 21 24
29 28 27 25 24 22 21 20 21 21 21 22 17 28 26 25 23 20 19 20 21 21
28 29 25 23 19 19 20 22 22 22 21 22 23 25 25 25 22 20 20 20 21 19
29 28 25 22 19 20 21 22 21 22 23 23 21 27 25 23 21 20 20 20 20 21
29 30 25 21 20 21 21 22 21 22 23 24 24 26 25 22 22 21 21 20 20 22
27 28 26 22 21 21 21 21 23 25 25 25 25 27 23 23 24 24 23 24 21 24
27 26 23 20 21 20 21 25 29 31 28 25 26 24 23 22 24 24 25 23 23 25

GFSNIL_sfc_dewp_006.txt.gz
Dewpoint
45 42 42 42 40 40 40 40 40 41 41 41 41 41 41 40 41 40 41 39 39 38
43 43 42 41 41 40 41 38 39 41 40 40 40 40 39 39 38 38 39 39 39 38
40 41 41 41 40 40 39 38 39 39 39 39 39 38 38 38 38 37 38 38 38 38
41 40 39 39 39 38 38 37 36 36 37 37 37 39 39 38 36 34 33 34 34 34
38 37 36 38 36 36 36 36 35 35 34 35 34 36 36 36 35 33 32 31 30 30
36 35 35 34 34 34 34 33 32 29 28 26 27 26 26 26 27 26 25 24 25 25
36 33 32 33 31 32 31 29 27 27 27 28 25 23 25 24 25 25 23 24 23 23
35 33 33 33 31 31 30 26 26 25 26 27 24 23 26 24 23 23 22 22 21 22
34 32 33 32 32 29 28 26 26 26 26 26 20 28 27 25 23 22 21 21 20 21
37 35 35 32 28 25 26 27 27 27 26 26 26 29 27 25 22 21 20 19 20 20
36 34 32 31 30 27 26 27 26 27 27 26 24 29 28 26 23 21 20 20 19 20
36 31 31 30 30 27 26 26 27 27 27 27 25 29 30 28 23 23 21 21 22 23
28 30 30 31 29 26 25 25 29 28 28 28 26 29 27 25 24 21 22 23 22 23
32 29 28 28 25 25 25 27 30 29 28 27 27 26 24 25 24 23 23 21 21 23

GFSNIL_sfc_dewp_009.txt.gz
Dewpoint
41 41 41 39 38 39 39 39 39 40 40 40 40 40 39 38 38 39 39 39 39 38
42 41 40 38 39 39 38 37 39 39 38 38 39 39 39 38 38 38 37 37 38 39
40 39 38 38 37 36 36 37 36 36 36 36 37 38 38 37 37 36 36 36 36 36
38 36 37 36 35 35 34 34 35 36 35 35 35 35 36 36 36 36 35 34 33 30
36 33 33 33 33 32 32 34 34 32 29 28 27 28 28 31 31 28 26 26 26 26
36 32 31 30 32 31 30 28 27 26 27 27 28 27 26 27 27 26 25 25 25 23
39 35 32 33 32 29 28 25 25 25 26 27 27 26 26 25 25 24 23 25 24 23
38 37 37 37 34 32 29 26 24 24 26 26 25 24 26 25 23 23 23 23 22 21
38 38 39 38 36 31 27 24 24 25 26 26 23 28 27 25 23 22 22 20 19 20
37 37 37 37 34 30 27 24 25 26 26 25 25 30 28 26 24 22 21 20 19 19
35 35 37 37 31 28 27 24 25 25 27 26 25 29 31 30 25 23 22 22 20 20
32 34 34 36 32 30 26 25 27 27 27 26 26 29 28 27 24 23 23 22 22 21
33 33 34 34 31 25 23 27 28 27 27 28 25 26 25 27 25 21 22 22 21 22
31 31 31 28 24 23 26 27 25 24 25 25 24 22 24 23 22 21 22 20 20 22

GFSNIL_sfc_dewp_012.txt.gz
Dewpoint
39 41 40 38 40 40 38 38 39 39 37 37 38 38 38 37 37 36 36 36 36 37
41 41 39 39 38 37 37 37 36 36 36 35 36 37 37 36 35 35 34 35 35 36
38 38 38 37 36 36 36 35 34 33 34 35 35 36 36 35 35 34 34 35 33 31
36 36 37 36 35 35 34 33 33 34 34 30 30 30 30 31 33 29 27 27 26 26
37 35 33 35 36 34 33 33 32 32 27 27 26 27 26 27 27 26 25 25 25 24
38 36 33 33 33 34 33 32 34 27 25 25 27 26 26 26 25 24 24 24 24 23
36 38 34 34 35 36 36 37 34 27 26 28 26 26 25 24 23 23 23 25 24 23
37 37 36 37 36 36 37 37 28 26 26 27 26 24 25 24 23 23 23 23 22 21
36 37 37 37 38 37 36 27 28 26 26 25 24 29 28 27 24 23 22 21 20 20
37 35 36 37 37 36 33 32 25 25 26 26 25 30 30 29 25 24 22 21 21 20
34 33 34 35 34 35 35 26 25 27 26 25 25 29 29 28 25 23 23 22 22 20
32 32 33 34 33 33 28 26 27 26 26 26 25 24 26 26 23 22 21 21 20 20
32 33 32 32 32 27 25 27 26 25 24 23 22 22 22 21 22 17 20 20 19 21
29 28 28 25 24 26 27 25 23 21 23 22 21 20 20 20 20 20 20 19 19 21

GFSNIL_sfc_dewp_015.txt.gz
Dewpoint
38 40 39 38 39 40 39 38 38 37 36 35 36 36 36 36 35 34 34 32 33 33
39 40 39 39 38 38 37 37 37 37 36 36 35 36 36 35 34 34 33 33 33 32
38 38 39 38 37 36 36 37 35 35 35 35 35 34 34 33 32 33 33 32 27 25
39 37 37 37 36 36 35 34 35 36 35 33 29 28 28 29 30 29 26 25 25 25
37 36 35 34 35 34 35 35 32 34 34 29 28 27 27 26 27 25 24 24 24 24
34 36 37 33 33 34 32 32 35 35 33 28 27 27 26 25 24 23 24 24 23 23
35 35 34 34 33 33 34 36 35 36 31 28 28 26 24 23 24 24 23 24 24 23
36 36 36 36 36 36 36 36 38 29 29 28 26 24 24 24 24 23 23 24 23 22
35 36 36 36 36 36 36 35 30 31 26 25 24 29 29 30 26 25 24 23 22 22
34 35 33 35 35 35 33 36 29 25 26 25 25 30 29 29 27 25 24 22 21 20
32 32 32 33 34 33 32 30 26 26 25 25 25 25 26 26 23 21 21 19 19 19
32 32 32 32 31 31 30 26 26 26 25 22 20 22 22 22 22 21 20 20 18 19
32 30 29 28 29 26 26 26 25 22 23 21 20 21 20 20 20 15 20 20 19 20
28 27 26 24 23 26 26 24 23 22 22 21 20 19 20 20 19 19 21 19 18 21

GFSNIL_sfc_dewp_018.txt.gz
Dewpoint
37 39 39 38 38 39 39 39 38 37 35 34 35 35 36 36 35 34 34 32 32 32
38 38 39 39 38 38 38 37 37 36 34 35 35 35 36 35 35 34 34 33 32 32
39 38 37 37 37 36 36 36 35 35 35 35 35 35 34 34 32 32 32 32 28 25
35 35 35 35 35 35 35 35 34 34 34 35 33 30 29 28 28 30 27 26 25 25
33 34 36 34 34 35 34 35 35 33 35 35 32 28 26 27 27 26 24 24 24 24
32 33 33 33 33 33 33 33 33 35 35 34 31 27 28 26 25 23 24 24 24 23
32 33 33 33 34 34 34 33 35 35 35 30 28 26 24 23 24 24 24 25 24 24
33 35 35 35 35 35 35 35 37 35 31 28 26 23 24 25 26 25 25 25 25 24
33 34 35 34 34 35 34 34 34 28 26 25 24 30 30 30 27 26 24 22 21 20
32 32 33 32 33 33 32 32 29 25 24 25 27 27 26 28 23 21 20 19 18 17
31 31 31 32 31 31 31 30 26 25 25 25 21 23 23 23 23 21 20 19 19 18
30 31 31 30 28 29 28 26 25 25 23 19 19 21 21 21 21 21 19 19 19 18
30 30 27 27 26 27 26 26 24 23 22 21 19 19 20 20 20 16 19 20 19 20
29 26 26 25 24 24 25 24 23 23 22 21 20 19 20 21 20 19 21 20 18 20

GFSNIL_sfc_dewp_021.txt.gz
Dewpoint
42 41 41 42 41 41 41 41 42 42 38 37 37 37 37 37 36 36 35 34 32 30
42 41 39 39 40 39 40 38 40 41 38 37 37 36 36 35 36 36 34 33 34 32
37 36 36 38 35 36 37 37 39 40 38 37 37 36 35 34 34 33 32 31 32 29
33 35 37 35 35 34 36 35 37 37 37 36 35 35 36 33 30 29 30 30 28 27
33 33 34 34 34 35 35 36 36 36 36 35 35 37 33 29 28 28 28 26 26 26
30 33 34 34 35 36 36 37 37 35 35 37 37 30 29 28 27 25 26 26 26 25
31 34 35 36 37 37 36 37 37 37 38 35 30 28 26 25 26 27 27 27 26 24
31 35 36 37 36 36 37 37 37 35 33 30 28 24 28 28 27 26 24 22 19 18
32 34 35 35 35 35 35 35 36 32 28 27 25 30 29 28 23 20 17 16 16 16
32 33 33 33 33 33 33 35 34 29 26 26 25 24 25 24 22 19 17 16 15 15
32 32 32 33 32 31 31 33 32 27 26 24 19 22 22 22 19 18 17 16 16 16
31 31 31 30 30 29 30 30 28 26 24 20 19 20 21 21 21 20 19 18 17 17
30 30 30 29 28 27 27 27 26 23 22 21 21 19 20 21 23 23 21 19 16 17
28 29 29 28 27 26 26 27 27 26 24 21 21 20 20 21 24 22 21 17 15 17

GFSNIL_sfc_dewp_024.txt.gz
Dewpoint
36 35 34 34 31 30 31 30 32 34 36 39 39 39 37 36 36 36 34 32 30 27
37 32 30 31 32 29 30 27 31 34 35 37 38 39 37 35 36 36 35 32 30 28
30 30 31 31 29 29 30 31 31 32 33 35 36 37 36 34 35 34 32 27 29 29
29 30 30 29 29 30 32 32 31 32 33 33 33 34 35 36 35 32 29 29 30 29
28 27 28 28 30 32 32 32 32 33 33 32 33 37 38 34 29 28 28 28 28 28
26 27 28 29 32 33 33 31 32 32 33 32 35 35 33 31 29 28 28 28 28 26
28 29 30 31 33 33 32 32 32 33 33 34 32 32 30 27 30 29 27 27 26 23
29 30 31 34 34 33 33 32 32 32 33 33 31 28 30 28 28 26 24 22 19 19
28 29 30 33 32 31 32 31 31 31 32 31 25 28 27 26 24 23 19 18 17 18
27 28 30 29 28 28 30 32 31 32 31 29 29 23 23 23 21 20 19 18 17 16
26 27 27 28 28 30 31 30 30 31 29 29 24 22 21 22 22 21 20 19 19 18
28 27 26 26 28 30 29 29 29 29 29 28 25 21 20 21 23 23 21 19 19 17
27 26 26 27 29 30 29 27 26 27 28 24 25 21 19 21 25 27 23 21 18 16
26 26 27 29 29 29 28 28 30 30 28 26 26 25 20 20 26 25 23 20 19 17

GFSNIL_sfc_dewp_027.txt.gz
Dewpoint
36 36 34 32 31 31 30 29 31 32 32 33 35 36 40 39 37 39 39 38 36 33
40 35 30 31 33 30 30 27 30 32 32 32 33 35 38 37 37 37 38 39 38 33
37 31 31 32 31 29 31 31 32 32 31 32 33 33 34 34 35 36 37 35 33 31
33 31 31 31 30 30 32 31 31 30 30 30 30 31 34 37 37 36 36 32 30 32
31 29 30 30 28 31 31 32 31 29 29 29 29 31 35 33 36 34 32 31 30 29
29 29 29 29 29 30 31 31 31 29 30 29 30 29 31 33 31 30 30 30 29 27
27 29 30 29 29 31 31 31 30 30 30 31 30 29 29 28 30 31 29 28 26 23
28 30 29 29 30 32 32 30 30 29 29 31 30 27 30 28 27 27 25 24 20 21
28 28 28 28 31 32 29 28 29 29 29 31 26 28 27 25 25 24 21 20 20 19
27 26 26 26 26 26 28 30 30 29 30 31 30 26 24 23 22 23 22 21 20 18
24 23 25 25 25 27 28 30 29 29 30 30 27 25 23 23 23 23 23 22 21 20
22 24 25 24 25 26 28 29 29 28 29 30 28 25 22 21 24 24 23 22 21 19
24 24 24 25 26 28 28 27 26 26 29 27 28 24 23 21 26 26 25 23 20 20
22 23 25 26 27 28 28 29 31 33 31 29 30 28 24 22 24 26 25 22 20 21

GFSNIL_sfc_dewp_030.txt.gz
Dewpoint
43 42 40 40 35 37 35 35 35 35 36 36 36 37 38 39 40 40 38 38 38 39
41 38 38 35 38 38 35 32 36 36 36 36 36 37 37 38 39 39 38 38 38 38
40 38 35 37 38 35 34 34 35 35 35 35 35 35 35 37 38 38 38 38 37 36
38 39 36 38 37 35 35 34 34 34 33 33 33 34 34 34 34 35 36 36 35 35
39 36 36 36 36 36 35 36 34 34 32 33 33 33 33 33 34 34 33 33 33 31
36 36 34 35 35 34 35 35 35 33 33 33 33 32 32 32 32 33 33 32 30 29
36 36 35 34 34 34 35 34 34 33 34 34 32 31 31 30 31 31 29 30 29 25
37 33 34 34 34 34 36 34 33 33 34 33 32 28 31 28 27 28 26 27 24 22
33 33 34 33 33 34 35 33 32 33 33 33 28 31 29 26 24 25 25 23 22 22
32 32 32 30 29 30 32 33 33 33 32 32 29 30 27 24 22 24 25 23 22 21
30 28 27 29 30 31 32 32 33 32 32 32 29 30 27 24 22 24 24 24 23 22
27 26 28 29 30 31 30 32 32 31 31 31 28 29 26 23 24 25 25 24 24 22
27 28 28 29 30 31 31 30 31 31 31 29 30 28 26 24 26 26 26 25 23 22
29 31 29 30 30 30 30 31 31 30 30 30 31 27 27 25 25 26 26 25 24 25

GFSNIL_sfc_dewp_033.txt.gz
Dewpoint
39 40 39 37 35 36 35 35 34 35 33 33 34 34 35 36 37 38 38 36 36 37
39 37 35 35 35 37 34 33 34 33 32 32 33 33 33 36 36 36 36 36 37 37
35 34 34 35 35 34 33 33 33 33 33 32 32 33 34 35 34 35 36 36 35 35
35 34 35 35 36 35 34 33 32 33 32 30 31 32 32 32 32 33 34 34 34 34
36 35 35 35 36 37 34 34 33 34 31 31 31 32 33 32 32 32 32 32 31 31
36 35 35 34 35 34 33 34 34 32 31 31 32 31 32 31 31 32 31 31 30 29
36 37 34 35 32 32 33 33 32 31 32 33 33 31 31 31 30 29 28 28 28 27
38 35 36 34 34 34 34 32 32 32 32 34 33 30 30 28 27 26 25 26 25 23
37 35 35 32 31 31 32 33 33 32 33 32 28 33 31 27 24 24 24 23 23 22
39 35 31 30 29 29 29 30 31 32 32 32 30 31 30 28 23 23 23 24 23 21
32 30 31 29 29 31 32 32 32 32 32 33 29 32 31 27 22 22 24 24 23 22
32 30 30 31 33 34 33 30 31 32 31 31 29 31 30 25 23 24 24 25 24 24
32 33 33 34 34 32 29 28 30 29 30 31 29 31 29 26 25 25 26 25 23 23
35 34 34 33 30 29 29 30 30 30 30 30 29 28 30 28 25 25 25 25 24 23

GFSNIL_sfc_dewp_036.txt.gz
Dewpoint
41 41 40 40 37 38 36 35 35 35 35 34 34 33 33 35 37 36 36 34 35 36
40 40 40 42 42 39 36 35 36 34 33 34 33 32 33 36 35 34 35 35 34 35
40 40 40 38 38 34 35 36 34 34 33 33 31 32 34 35 33 34 34 35 33 33
35 36 36 36 36 35 35 35 34 35 33 31 30 31 34 33 33 32 33 33 34 33
36 41 38 36 37 36 35 36 35 35 33 31 31 31 32 33 32 31 32 31 30 30
35 34 34 36 37 37 36 34 34 34 31 31 32 32 33 32 32 32 33 31 29 29
34 35 35 37 36 35 34 34 34 32 32 33 33 33 32 31 32 31 29 27 26 25
40 38 39 36 35 35 34 33 33 32 33 33 33 32 32 31 29 27 26 26 24 23
39 36 36 35 33 32 33 32 32 32 33 33 31 32 34 30 27 25 24 22 24 23
38 36 35 33 32 31 32 33 33 32 33 33 33 33 33 31 25 24 23 23 24 22
34 33 33 33 33 34 34 33 32 32 31 32 32 33 33 30 23 22 23 24 24 22
33 32 33 34 35 35 33 33 31 30 31 31 31 32 32 28 23 23 24 25 25 24
34 36 36 36 34 33 32 29 29 30 30 31 29 32 32 29 26 25 26 25 25 25
38 37 35 33 32 29 29 29 29 29 29 29 29 29 32 31 25 25 25 25 24 24

GFSNIL_sfc_dewp_039.txt.gz
Dewpoint
50 48 49 46 42 39 37 36 36 37 37 37 35 34 34 35 37 36 35 35 35 35
44 43 47 44 42 38 37 35 36 37 36 35 35 33 34 37 35 35 35 34 34 35
45 45 45 42 39 37 36 36 37 35 35 35 34 34 34 35 34 35 35 35 34 34
42 41 40 39 36 35 36 35 34 35 34 35 33 32 33 34 33 33 33 34 34 33
41 41 38 37 35 35 35 35 35 37 36 34 32 31 33 33 32 32 31 31 32 32
39 37 35 37 38 36 37 37 36 35 34 33 32 31 32 32 32 32 31 32 31 30
41 39 39 39 39 37 36 36 35 35 34 34 32 32 33 32 32 31 32 31 28 26
41 39 40 39 37 38 37 35 35 34 33 33 33 32 33 32 32 31 28 28 26 25
41 39 37 36 36 35 34 33 35 37 35 33 32 33 35 33 30 28 27 25 23 23
39 37 35 34 33 33 34 37 38 36 33 31 32 34 34 34 28 26 25 23 22 23
35 34 33 33 34 36 39 38 33 32 30 31 30 33 34 33 25 24 24 23 24 23
35 35 36 36 38 39 35 32 31 30 29 29 29 32 33 31 24 24 23 24 25 24
37 38 39 38 36 33 32 32 29 28 29 30 29 31 33 32 25 24 25 24 25 28
40 39 38 34 32 30 29 29 28 28 28 28 29 29 32 33 27 26 26 26 25 25

GFSNIL_sfc_dewp_042.txt.gz
Dewpoint
54 53 52 50 48 43 38 36 36 36 38 38 40 39 35 35 37 37 36 35 35 35
54 52 52 50 47 42 39 37 37 38 40 42 39 36 35 36 37 36 35 35 34 34
51 51 50 48 44 40 40 37 37 38 41 37 36 35 35 35 35 34 35 35 34 34
48 48 48 46 46 42 39 36 37 39 36 36 35 34 34 34 34 34 34 34 33 33
48 47 46 45 41 37 37 37 36 36 36 35 34 34 33 33 34 33 32 32 33 33
45 44 43 41 40 38 38 38 39 37 37 37 37 33 32 34 33 33 32 31 31 31
42 41 41 40 38 39 38 37 37 38 37 36 33 34 33 32 32 32 32 32 32 31
41 40 41 39 38 38 37 36 35 37 39 40 37 33 34 33 32 31 31 31 30 28
41 39 38 37 35 36 37 39 40 40 39 39 38 36 35 34 32 31 30 29 27 25
39 36 36 35 35 36 37 40 40 39 39 37 33 33 34 35 32 30 28 27 25 23
36 34 35 36 37 39 40 39 38 36 33 31 30 33 34 34 31 28 27 25 24 23
35 36 37 38 39 40 39 37 34 32 30 29 29 32 32 32 29 26 25 24 24 24
39 40 40 39 38 36 34 32 32 29 29 30 30 31 32 33 28 26 26 25 25 28
40 39 39 37 33 31 30 29 29 29 29 28 28 28 32 33 29 27 27 26 26 26

GFSNIL_sfc_dewp_045.txt.gz
Dewpoint
56 56 55 53 52 50 48 47 45 41 39 39 41 41 43 41 38 39 39 40 39 38
57 56 54 53 52 50 49 44 43 40 41 42 41 44 40 38 38 39 40 41 41 39
58 56 56 54 52 50 47 43 42 40 41 42 44 40 39 37 38 39 39 38 38 37
57 56 56 54 53 49 46 42 39 40 43 43 39 38 37 38 38 37 37 37 37 36
56 54 54 52 51 49 45 42 41 42 41 39 38 36 39 38 35 35 36 36 36 35
53 51 51 50 48 45 43 41 40 39 38 38 38 39 38 39 36 35 35 36 35 35
49 49 48 45 44 43 41 39 39 40 40 39 37 39 38 35 34 34 34 35 35 34
45 44 43 41 40 40 39 38 38 39 40 41 41 39 38 38 37 37 35 35 34 35
41 40 39 38 38 39 39 39 40 40 40 41 40 39 38 38 37 33 32 33 34 34
38 37 37 38 38 39 40 41 41 41 41 40 40 37 36 35 32 33 33 33 32 31
36 36 37 39 40 40 41 40 40 40 40 39 36 34 34 34 33 32 32 32 32 32
37 37 39 39 40 41 40 40 39 38 36 34 33 33 32 32 32 31 31 30 30 29
39 39 40 40 39 38 36 34 33 32 33 33 32 33 33 32 33 33 32 31 29 29
40 39 38 36 34 33 32 32 33 32 32 32 32 31 32 32 32 33 32 31 30 30

GFSNIL_sfc_dewp_048.txt.gz
Dewpoint
61 60 59 58 57 56 53 51 51 50 49 48 45 44 44 43 44 41 41 38 37 34
60 60 59 59 58 54 52 52 51 49 48 45 42 42 44 44 42 40 41 43 41 38
59 59 59 59 55 54 53 52 50 47 45 43 43 43 44 40 41 42 42 41 41 38
59 59 59 58 57 56 55 52 48 47 45 43 43 42 40 42 41 39 41 41 39 37
59 58 58 57 57 56 52 49 47 44 42 44 41 41 41 41 40 40 39 39 37 35
56 56 55 53 52 51 49 46 43 43 44 41 41 40 41 41 42 41 40 38 36 34
53 52 51 50 48 47 45 43 43 42 41 41 41 41 41 42 41 41 39 37 36 35
49 48 48 48 47 45 42 41 41 41 41 42 41 41 42 40 40 40 40 39 37 36
45 45 44 42 42 41 40 40 40 40 41 41 41 39 39 39 40 40 38 34 33 33
41 40 40 39 38 39 41 43 42 42 42 42 42 39 39 38 37 34 33 33 32 29
39 39 39 39 40 42 43 42 41 41 41 41 39 37 35 34 33 33 32 32 31 30
39 39 39 40 41 42 41 40 40 38 37 36 35 34 34 33 33 32 32 30 30 30
39 40 40 41 40 39 37 35 33 32 33 33 33 33 34 33 33 32 32 32 30 31
40 38 36 35 34 34 32 32 34 33 33 32 32 32 33 33 33 33 34 32 31 31

GFSNIL_sfc_dewp_051.txt.gz
Dewpoint
58 59 58 59 58 58 58 58 56 54 52 52 51 51 49 46 47 46 45 43 42 43
61 61 61 61 61 60 60 55 54 53 52 51 51 48 47 47 45 42 45 44 44 42
59 61 61 61 61 60 58 55 53 53 52 51 46 47 46 44 43 42 44 44 42 42
60 60 60 60 60 58 57 55 53 53 51 47 47 45 43 43 43 42 43 43 42 41
60 60 60 60 58 58 57 54 51 49 48 46 44 44 42 42 42 41 42 42 41 42
58 57 57 55 53 53 51 50 49 46 46 45 44 42 42 42 42 42 42 41 41 42
56 55 54 53 51 49 47 45 44 45 43 42 41 41 41 42 42 42 42 42 42 41
53 52 51 50 49 47 45 44 42 42 42 42 42 42 42 42 42 41 41 42 41 41
49 49 47 47 46 45 44 43 42 42 42 42 40 39 39 40 41 40 40 40 40 39
44 43 43 41 41 41 42 43 43 42 42 42 42 39 39 38 40 38 36 34 33 31
42 41 41 41 41 42 43 42 43 42 41 41 39 39 39 36 34 32 32 32 31 32
41 41 41 41 41 42 42 41 41 40 38 37 35 37 34 32 33 31 31 30 30 30
40 40 41 42 41 40 40 36 34 32 32 32 31 34 34 32 33 33 33 32 31 31
40 40 40 38 37 34 33 32 34 32 33 31 32 33 34 33 31 32 30 30 31 33

GFSNIL_sfc_dewp_054.txt.gz
Dewpoint
58 60 60 58 56 58 58 58 58 58 57 55 54 53 52 49 47 48 48 47 43 43
60 60 61 60 60 59 59 59 58 58 54 53 53 52 49 48 48 47 45 45 43 44
60 60 60 58 61 61 59 57 56 55 54 53 52 48 47 47 44 44 44 44 43 43
59 59 60 61 60 60 58 57 55 54 53 51 47 48 45 44 43 43 43 43 42 42
60 61 60 60 59 58 57 56 55 52 49 47 46 44 43 43 43 43 42 42 42 42
60 58 56 55 54 53 52 50 49 47 46 45 45 43 43 42 41 41 41 42 42 41
56 54 53 52 50 49 47 46 46 46 45 44 43 42 42 41 41 41 42 42 42 41
53 52 51 49 48 46 45 45 43 43 43 42 42 42 41 41 42 42 42 42 42 42
51 51 50 48 46 45 44 43 43 43 42 42 41 40 39 41 41 41 40 40 40 40
48 47 46 45 43 43 43 43 43 42 42 42 42 39 39 39 40 40 40 39 38 34
44 42 42 42 43 43 43 43 43 43 42 42 41 39 39 38 38 33 33 33 33 33
42 42 42 41 42 43 42 42 42 41 40 39 39 39 36 33 33 33 32 32 32 33
42 42 42 42 42 41 41 40 37 34 35 31 34 34 33 32 32 31 29 29 28 30
42 42 41 40 39 39 36 36 34 33 34 33 31 30 28 27 25 25 24 24 24 24

GFSNIL_sfc_dewp_057.txt.gz
Dewpoint
57 57 57 56 57 57 57 58 59 59 58 57 56 55 53 53 51 48 47 48 46 44
58 57 59 58 58 59 59 58 58 58 57 56 55 54 52 50 48 48 46 45 45 44
58 59 59 59 59 59 57 55 55 55 55 54 53 50 48 48 47 46 45 44 44 44
59 60 59 57 56 58 56 56 56 55 53 52 50 48 47 45 45 44 44 44 43 43
59 59 59 59 58 58 57 56 55 54 52 49 47 46 45 44 43 43 42 42 42 42
59 59 58 56 55 54 53 51 50 49 48 46 45 44 44 43 43 43 42 42 41 42
56 55 53 52 51 50 49 48 47 47 45 45 44 43 43 42 42 41 41 42 43 42
52 52 50 48 48 47 47 46 45 44 44 43 43 42 42 41 41 41 41 42 42 42
51 50 48 47 46 45 44 43 43 43 42 41 41 39 39 40 41 41 41 40 40 39
50 48 47 45 44 43 42 42 41 40 40 40 39 39 39 39 41 40 38 37 37 38
46 45 44 42 43 42 41 41 41 42 42 42 41 38 39 37 36 35 33 32 32 31
43 42 42 42 42 42 42 41 41 41 40 39 40 38 37 34 32 31 29 28 28 28
42 42 42 42 41 41 40 41 40 37 35 34 31 32 33 30 27 23 23 24 25 26
42 41 41 40 39 40 37 33 32 32 32 30 28 28 27 26 23 24 25 23 23 23

GFSNIL_sfc_dewp_060.txt.gz
Dewpoint
54 55 56 55 52 52 54 55 57 58 58 58 57 57 56 54 53 52 51 49 48 45
54 55 57 57 55 55 57 57 57 58 58 57 57 57 55 53 49 49 48 48 46 45
55 57 57 58 56 57 57 56 56 57 57 57 56 55 53 50 48 47 46 46 45 45
56 57 59 59 58 58 57 56 54 56 56 55 54 51 49 47 47 46 45 44 44 44
59 59 59 59 58 58 56 55 54 55 53 51 49 48 46 46 45 44 43 44 44 43
59 59 59 59 59 59 56 54 54 53 52 49 47 45 45 44 44 44 43 43 42 42
58 58 58 56 55 54 53 51 50 49 48 46 45 44 44 44 43 43 42 42 42 42
58 55 53 52 51 49 48 48 47 46 46 44 44 43 43 43 42 41 41 41 42 42
53 51 50 49 49 47 46 46 45 44 44 44 43 39 40 41 41 40 41 41 41 39
50 49 48 47 46 45 44 44 44 43 42 42 41 38 39 39 41 41 39 37 34 32
48 46 45 45 44 45 44 42 41 41 40 39 39 38 38 37 36 33 32 31 29 28
46 45 45 43 42 41 40 40 40 41 40 39 38 37 35 34 31 28 26 26 26 25
46 44 43 41 40 40 41 41 41 39 37 37 35 34 33 30 26 23 22 23 22 24
42 42 41 41 41 40 38 35 34 31 29 29 29 28 28 26 23 24 23 22 22 23

GFSNIL_sfc_dewp_063.txt.gz
Dewpoint
48 50 51 51 50 51 51 52 53 55 57 57 57 56 56 56 55 53 53 51 50 49
49 51 51 52 55 54 53 53 54 55 56 56 56 57 56 57 56 53 52 51 50 49
48 51 53 55 55 56 56 56 57 56 56 57 57 57 57 56 52 50 49 48 47 46
49 51 53 55 56 57 57 57 57 57 57 57 57 55 54 52 49 48 46 46 46 44
54 56 56 57 57 58 58 57 57 55 55 55 54 53 51 49 48 46 45 45 45 44
57 58 58 58 58 58 58 57 55 55 53 53 50 50 48 47 46 45 45 44 44 44
57 58 57 58 58 58 57 55 55 54 52 50 48 47 45 45 44 44 43 43 43 43
57 57 57 57 57 54 55 54 53 49 47 46 46 46 44 44 43 43 42 42 42 42
56 57 57 55 52 50 49 49 47 46 45 45 46 40 41 42 42 41 41 41 41 38
56 53 52 50 50 48 47 48 46 44 44 45 43 39 39 39 41 40 40 38 35 30
52 51 50 49 47 46 46 44 43 44 44 43 41 38 38 37 37 34 32 30 29 28
50 48 47 45 45 45 43 43 42 42 41 40 39 36 35 33 30 26 26 25 24 23
48 46 44 44 44 42 42 42 41 39 39 38 37 35 34 30 26 23 23 22 22 25
45 44 43 41 41 41 40 37 34 32 32 32 31 30 30 28 24 24 22 21 21 22

GFSNIL_sfc_dewp_066.txt.gz
Dewpoint
49 50 49 49 49 49 49 49 50 52 54 55 55 55 54 54 55 55 55 54 53 53
50 50 50 50 51 51 51 52 51 52 52 54 54 55 56 56 55 55 55 53 53 52
50 50 51 51 51 53 54 53 52 53 53 54 54 54 56 56 56 56 54 52 51 50
50 50 51 52 53 54 55 56 55 55 56 56 56 55 55 56 54 53 52 50 49 48
50 50 50 51 52 54 54 55 56 56 56 57 56 56 56 54 51 51 48 47 47 46
50 50 50 51 51 52 53 54 56 56 56 56 55 54 53 52 51 49 48 46 46 45
52 51 51 51 52 54 56 57 57 57 56 54 53 52 50 49 47 46 45 45 45 44
53 53 52 53 54 54 56 57 57 55 52 49 49 48 47 47 45 44 43 43 43 43
54 55 55 55 56 56 56 56 55 52 52 48 48 45 43 45 44 43 42 41 39 38
55 55 55 56 56 54 54 52 49 48 48 46 44 42 42 40 43 42 41 38 34 31
55 55 53 52 51 49 48 48 47 47 45 44 41 40 40 39 38 36 34 33 31 28
54 52 50 49 47 46 45 45 44 44 43 40 39 37 36 34 31 29 27 26 25 25
51 49 48 46 45 44 44 42 41 40 40 37 36 35 34 31 28 25 23 23 23 24
47 45 45 43 43 42 40 38 35 34 34 34 34 33 32 29 27 24 22 20 20 22

GFSNIL_sfc_dewp_069.txt.gz
Dewpoint
53 52 52 53 51 51 52 52 53 55 55 56 56 57 58 58 59 59 59 58 58 55
52 53 52 53 54 54 54 53 54 54 55 56 56 57 58 58 58 58 59 59 56 56
53 53 53 54 53 53 54 53 53 54 54 54 55 56 57 58 58 58 59 58 55 56
53 53 53 53 54 53 54 54 54 54 54 54 54 56 57 57 58 57 57 56 55 54
54 53 53 53 53 54 53 54 54 54 54 55 55 57 57 56 55 55 55 53 53 53
54 53 53 53 54 54 54 54 56 56 56 55 54 55 56 56 55 54 54 53 50 49
53 53 53 53 53 54 54 54 54 54 56 56 56 55 55 55 55 53 51 50 49 47
53 53 53 53 53 53 53 53 54 55 57 57 56 54 53 53 52 48 47 47 46 45
52 53 52 52 53 53 54 55 57 58 57 53 52 45 45 48 48 46 45 43 42 41
53 53 54 53 52 54 55 56 57 57 55 52 51 42 43 44 46 44 42 39 37 34
54 54 54 55 55 55 56 56 54 52 50 47 43 41 41 41 43 40 38 36 34 32
54 54 55 55 54 49 49 47 47 46 44 42 40 38 38 38 36 33 32 30 29 28
55 55 53 51 47 46 46 44 43 42 41 38 37 36 35 34 32 29 27 28 26 26
51 50 48 45 45 43 41 39 37 35 36 36 35 34 34 33 30 27 25 23 21 23

GFSNIL_sfc_dewp_072.txt.gz
Dewpoint
55 56 55 55 54 55 54 54 56 57 56 56 55 56 58 57 56 57 58 58 58 56
55 56 56 56 55 55 55 54 56 57 57 56 56 56 58 56 56 56 57 58 58 57
54 54 55 55 56 56 56 55 56 56 56 56 55 54 55 55 55 55 57 56 57 57
54 54 56 56 56 56 56 56 55 54 55 53 53 53 54 54 54 54 55 57 57 58
55 54 54 55 56 58 57 57 56 54 52 52 52 54 55 54 54 54 55 56 58 56
55 55 55 55 55 54 55 55 55 54 54 54 55 54 54 55 55 55 57 58 56 55
55 56 55 54 53 54 53 52 53 54 54 55 54 54 54 55 55 55 54 55 55 55
55 54 54 54 54 54 54 53 53 54 55 55 55 54 55 55 55 54 54 53 52 52
54 54 54 54 54 55 54 54 54 55 54 54 54 48 47 53 56 54 52 49 47 46
53 53 54 54 53 53 54 55 55 54 53 55 56 44 45 44 55 52 49 45 42 39
52 52 53 53 53 54 54 54 55 56 56 57 56 43 43 41 48 44 43 41 39 35
52 52 53 53 54 55 55 56 56 55 54 53 47 41 41 41 39 36 34 34 34 32
52 53 54 55 55 52 54 50 45 43 43 40 40 39 38 38 35 32 31 31 31 32
53 54 55 52 51 48 43 41 39 38 37 37 37 36 36 35 33 30 28 27 28 29

GFSNIL_sfc_dewp_075.txt.gz
Dewpoint
57 56 56 56 55 56 55 55 57 56 55 53 54 56 56 56 57 57 58 58 58 54
57 57 57 57 58 57 56 55 57 57 55 55 54 55 57 55 55 56 56 57 59 57
56 57 58 58 58 57 58 57 57 57 56 55 55 55 57 56 55 55 56 57 58 58
56 56 58 58 58 58 58 58 57 57 56 55 55 55 56 55 56 55 56 57 57 57
57 55 57 57 58 59 58 58 57 56 56 55 55 56 56 55 54 55 54 55 56 55
57 57 57 57 58 57 58 57 56 56 56 55 55 55 55 55 55 55 55 55 56 55
57 57 57 56 57 57 57 57 57 57 56 56 55 54 54 53 55 55 54 55 56 56
57 57 56 56 56 56 57 56 56 57 57 57 56 54 55 54 54 53 54 55 56 56
55 55 56 57 57 57 56 56 56 56 55 56 54 48 45 50 54 54 54 54 54 54
55 55 57 56 55 55 56 57 56 55 55 55 56 45 45 44 54 54 54 55 53 47
54 55 55 56 55 56 56 56 56 57 57 56 55 43 45 43 54 55 55 51 46 42
53 53 54 55 56 57 57 57 56 56 56 55 55 42 43 45 44 39 37 37 38 37
52 53 53 55 56 57 56 55 54 48 47 43 45 40 41 42 38 34 33 34 34 34
52 53 53 54 56 56 53 47 42 39 38 38 38 37 38 37 34 32 30 30 30 31

GFSNIL_sfc_dewp_078.txt.gz
Dewpoint
57 57 57 57 56 55 53 55 54 55 55 55 54 54 55 55 56 56 56 55 55 55
58 58 56 57 57 57 55 53 53 54 55 55 53 53 53 54 55 55 55 55 55 55
56 57 57 57 56 56 56 55 52 53 55 55 53 53 53 52 53 54 55 55 55 55
57 57 56 56 57 56 57 56 55 55 54 54 54 53 52 52 53 53 53 53 53 54
57 57 57 57 57 57 57 57 55 55 55 55 54 53 53 52 52 53 53 53 53 53
56 56 56 57 57 57 57 57 57 56 55 55 54 53 53 52 52 52 53 53 53 53
56 56 56 56 56 58 57 57 57 56 56 56 55 54 53 52 52 53 53 53 53 53
55 56 56 56 56 56 57 57 56 56 55 55 55 54 54 53 53 53 53 54 53 54
54 55 56 56 56 56 56 56 56 56 55 55 54 48 45 51 53 53 53 53 53 53
55 54 55 56 55 55 55 55 55 55 55 55 55 46 44 44 52 53 53 52 53 51
55 55 55 55 55 55 55 55 55 55 55 55 55 45 43 42 52 53 53 52 52 52
54 54 55 55 55 55 55 55 55 55 54 54 54 44 42 43 51 48 39 39 39 39
53 54 54 55 55 56 56 55 55 54 51 48 52 40 41 45 43 35 33 33 34 34
52 53 54 54 55 56 56 50 43 38 37 37 38 39 41 40 38 34 32 31 31 32

GFSNIL_sfc_dewp_081.txt.gz
Dewpoint
57 57 56 56 56 55 55 54 52 55 56 56 57 57 57 57 57 56 56 55 55 54
57 57 56 56 56 56 55 55 55 53 55 56 55 55 55 55 55 55 55 54 54 54
57 57 57 57 56 56 55 54 55 54 54 55 55 54 54 53 53 54 55 55 54 54
57 57 58 57 57 57 57 55 53 53 53 54 54 53 52 52 51 53 53 54 54 54
55 55 56 57 57 57 57 57 55 53 52 52 53 54 52 52 51 51 52 53 53 54
55 55 55 55 55 56 56 56 56 55 54 52 52 53 53 52 51 51 51 52 52 52
56 56 56 56 55 56 56 56 56 55 55 55 53 53 52 52 52 51 51 52 52 52
55 56 56 56 56 56 57 56 56 56 55 55 55 54 54 53 53 52 51 51 52 53
54 55 55 55 55 56 57 56 57 56 56 55 55 49 46 51 53 52 51 51 51 52
54 54 55 55 55 55 55 56 56 57 56 56 55 46 45 44 53 53 52 52 52 52
56 55 54 54 55 55 55 55 55 55 56 56 55 46 43 42 52 53 53 53 53 52
50 51 55 55 54 55 55 55 55 55 55 55 55 45 44 43 50 52 52 43 43 49
45 45 47 53 55 55 55 55 55 55 55 51 55 44 43 44 52 45 36 35 35 36
39 40 42 44 53 56 55 55 53 46 40 39 41 41 40 41 43 42 35 33 32 33

GFSNIL_sfc_dewp_087.txt.gz
Dewpoint
57 56 56 56 55 54 54 55 55 54 55 55 55 56 56 55 55 55 54 52 51 51
57 56 56 56 56 54 54 54 55 55 55 55 55 55 56 56 54 54 55 54 53 51
57 56 56 56 56 56 54 53 53 54 55 56 56 55 55 55 55 55 55 54 54 53
57 57 57 56 56 56 56 54 53 53 54 54 55 56 55 55 54 55 54 54 54 54
56 57 57 56 56 57 56 56 54 53 53 53 54 55 55 55 55 54 54 54 54 54
56 56 56 56 56 56 56 56 56 55 54 53 53 53 54 54 54 53 54 54 54 53
55 56 55 56 56 56 56 56 56 56 55 54 54 52 52 53 53 53 53 53 52 52
56 57 57 57 57 57 57 56 56 56 55 55 54 54 53 52 52 52 52 52 52 52
56 56 56 56 56 56 57 56 56 56 56 55 54 48 45 50 53 52 52 51 51 51
46 47 49 52 56 56 55 56 56 56 56 55 55 48 45 44 52 52 52 52 52 52
40 42 44 45 46 47 51 56 56 56 56 56 56 48 47 45 51 52 52 52 52 52
35 37 38 38 40 43 45 47 49 56 56 56 56 48 45 45 52 52 52 53 53 53
30 32 33 34 36 37 40 43 45 47 45 39 41 36 37 42 53 52 52 52 53 47
29 30 31 32 33 34 36 39 38 36 33 33 32 33 35 37 42 51 51 50 47 34

GFSNIL_sfc_dewp_093.txt.gz
Dewpoint
56 57 57 57 57 57 57 57 58 57 56 55 53 52 52 54 53 54 55 54 53 53
57 57 57 57 58 57 58 58 58 58 56 55 53 52 51 53 53 54 55 54 54 53
56 57 57 57 57 56 56 57 57 57 57 57 54 51 51 52 52 53 54 54 53 54
56 57 57 56 56 56 56 57 58 57 57 56 56 56 55 55 53 54 54 55 54 53
56 57 57 57 57 57 57 57 57 57 57 56 57 57 57 56 55 55 53 53 56 55
56 56 56 58 57 57 57 56 56 56 56 56 56 56 56 55 55 55 56 55 55 55
55 56 57 57 57 57 57 57 56 55 55 55 55 55 55 55 55 55 55 56 57 56
56 57 57 57 57 57 57 57 57 57 56 56 55 54 55 55 55 55 55 56 55 56
48 48 48 50 55 57 57 57 57 57 56 57 55 48 45 51 55 54 54 55 55 56
41 42 42 44 45 45 46 49 51 52 54 56 48 36 39 42 53 53 53 53 53 53
36 37 38 39 39 41 43 45 46 41 39 42 35 35 35 35 44 52 54 54 53 53
33 33 34 35 36 38 41 41 38 36 34 35 33 34 34 35 42 48 51 53 46 38
31 31 32 33 34 36 36 35 33 31 31 31 31 33 33 35 40 42 38 34 32 32
29 30 31 32 32 33 33 32 31 30 30 29 30 31 31 32 33 34 31 30 29 29

GFSNIL_sfc_dewp_096.txt.gz
Dewpoint
57 56 56 57 58 59 59 58 58 57 57 56 56 56 56 55 55 56 57 56 57 55
57 57 56 58 58 58 59 58 58 57 57 56 55 54 53 52 54 54 55 56 57 55
57 57 57 58 57 57 59 59 58 58 56 55 55 55 54 52 52 52 54 53 54 55
57 57 58 57 58 57 58 58 58 58 57 55 54 53 53 52 52 52 53 53 54 54
56 57 57 57 57 57 57 57 58 58 57 56 55 54 51 51 51 51 50 51 53 53
55 56 56 57 58 58 58 58 58 58 57 57 57 56 55 54 53 53 53 53 51 51
55 55 56 57 57 57 57 57 57 57 58 58 57 57 57 57 57 57 56 56 55 54
56 56 56 57 56 57 58 57 56 56 56 57 57 55 57 56 56 56 56 56 56 57
46 47 48 49 50 53 54 56 57 57 57 56 44 36 38 46 56 56 55 55 56 56
39 41 43 44 44 45 47 48 46 45 41 38 36 35 36 36 48 55 56 56 55 55
37 37 39 39 41 43 43 41 39 38 39 36 33 34 34 34 44 48 51 49 42 43
35 36 37 37 39 40 39 36 34 34 34 33 32 33 33 37 43 41 37 33 33 34
32 33 33 35 37 37 34 33 32 31 32 32 31 31 32 37 40 36 33 30 30 30
30 31 32 33 34 34 34 33 33 32 32 31 30 30 30 32 34 33 30 29 28 29

GFSNIL_sfc_dewp_099.txt.gz
Dewpoint
60 57 55 57 58 59 59 59 58 58 57 57 58 59 58 58 57 58 58 57 58 57
59 57 55 58 59 59 60 59 59 58 56 57 57 57 57 57 57 57 57 58 58 56
58 57 57 59 59 60 60 59 59 58 57 56 56 57 57 56 56 56 57 56 56 56
58 57 57 58 59 58 59 59 58 57 57 56 55 55 54 55 53 54 54 54 54 53
58 57 57 58 58 59 59 59 59 58 57 56 55 55 54 54 52 51 52 52 52 52
57 56 57 58 58 58 58 57 58 58 57 56 55 55 55 54 54 53 53 53 53 52
57 57 57 57 57 58 57 57 57 58 57 57 57 55 54 53 53 54 54 55 54 54
57 56 57 57 58 57 57 58 58 58 58 58 57 48 50 55 55 56 55 56 55 55
47 46 47 50 51 56 56 55 54 50 54 44 37 36 37 40 56 57 56 56 57 56
42 43 43 45 45 44 44 43 44 41 38 36 35 34 35 35 48 56 55 49 50 52
39 39 40 41 41 39 38 37 38 37 36 34 33 34 35 35 46 42 37 36 37 38
37 37 39 38 38 37 35 34 34 35 35 33 32 33 35 42 40 35 33 32 32 33
34 35 35 37 37 36 35 34 34 33 32 33 31 31 33 38 37 33 31 30 30 30
33 33 34 34 35 36 36 35 34 33 33 30 30 30 31 33 33 32 30 29 29 30

GFSNIL_sfc_dewp_102.txt.gz
Dewpoint
61 61 59 57 59 59 58 58 58 59 59 59 59 60 60 60 60 59 59 58 57 57
61 61 59 59 60 59 59 59 58 58 58 58 59 59 58 57 57 58 58 58 57 57
60 60 59 59 60 60 59 58 58 57 57 57 57 57 58 57 57 57 57 58 58 57
60 58 59 59 59 59 60 59 58 57 57 56 57 57 57 57 57 56 56 56 56 56
59 58 58 59 59 60 59 58 57 58 56 56 56 56 56 55 56 55 55 56 55 55
58 57 57 58 59 59 59 58 58 57 57 56 55 55 55 55 54 54 54 54 54 53
57 57 57 59 59 58 58 58 58 58 57 56 55 55 55 55 54 53 53 53 53 53
54 57 58 58 58 58 57 57 58 58 57 55 53 43 49 54 54 54 53 54 54 53
44 46 49 50 53 52 50 49 47 47 43 40 36 36 37 41 54 54 54 55 55 55
39 40 42 42 42 42 43 42 40 38 37 35 35 35 37 36 49 45 43 42 44 45
37 38 37 37 37 36 37 37 36 35 34 34 33 35 37 39 39 36 34 35 35 35
36 35 35 35 35 35 34 33 33 33 32 32 32 35 37 36 35 33 32 32 33 32
35 36 34 33 33 35 33 33 32 31 31 32 31 34 36 35 34 32 31 31 31 31
33 33 33 33 34 33 33 33 32 31 31 30 31 32 33 34 33 31 30 29 29 30

GFSNIL_sfc_dewp_105.txt.gz
Dewpoint
60 60 59 59 60 59 58 58 58 58 58 59 60 59 60 60 60 60 59 58 58 58
61 60 58 58 60 59 58 58 58 58 58 59 59 59 59 59 59 59 59 59 58 58
61 61 58 59 59 58 58 58 58 58 58 58 58 59 58 58 59 59 59 58 58 57
59 60 59 59 59 58 58 58 58 57 57 57 57 57 58 57 58 58 58 58 57 57
58 59 58 59 59 58 58 58 58 57 57 56 56 57 57 56 57 56 56 57 57 56
58 58 58 58 59 59 58 58 58 57 56 56 56 56 56 56 56 56 56 56 56 56
57 58 59 59 59 59 58 57 57 57 56 56 56 56 56 56 56 55 56 56 56 55
46 52 53 55 58 59 59 58 58 57 56 55 54 49 55 55 55 54 54 55 54 55
40 41 43 45 46 48 47 46 44 44 42 40 38 36 38 47 55 55 54 53 54 54
38 38 39 38 38 38 39 38 37 37 36 36 37 37 38 38 48 46 44 43 46 43
37 37 36 37 37 35 35 35 34 34 35 36 37 37 37 36 36 35 34 35 35 35
33 35 35 35 35 35 33 32 31 32 32 33 35 36 35 34 33 31 31 32 33 33
33 33 33 33 33 34 33 31 31 30 31 32 32 35 35 34 33 31 30 31 31 32
31 31 32 32 33 33 33 32 31 30 30 30 31 32 34 33 32 30 29 29 30 31

GFSNIL_sfc_dewp_108.txt.gz
Dewpoint
62 61 60 60 60 60 59 60 59 59 59 59 59 60 60 60 60 60 60 59 58 57
62 61 60 60 60 60 60 58 58 58 58 57 58 58 59 59 59 59 59 59 58 57
62 61 60 59 59 59 59 58 57 57 57 57 58 58 59 58 59 59 59 59 58 57
60 59 59 59 59 59 58 58 57 57 58 58 58 58 58 58 59 58 58 59 58 57
59 58 58 59 59 58 58 57 57 57 57 56 57 57 57 57 58 58 58 58 58 57
49 58 58 58 58 58 58 57 57 57 57 56 56 57 57 57 57 57 57 57 57 57
42 47 56 58 59 58 58 57 57 57 57 57 57 57 56 56 56 56 56 56 57 57
40 41 44 50 59 59 58 58 58 57 56 56 55 48 54 56 56 56 56 56 56 56
37 38 39 40 44 45 45 44 44 43 42 42 40 37 38 43 55 55 55 54 55 55
35 35 36 37 36 37 38 40 38 38 39 39 38 38 39 41 47 44 43 43 48 43
34 33 34 34 33 33 33 34 34 35 36 36 35 36 36 36 36 35 35 35 36 37
32 33 33 33 32 32 33 31 32 32 33 33 34 35 35 34 33 32 32 33 34 34
31 30 32 32 32 32 32 31 31 31 31 33 32 34 34 33 32 31 31 31 32 33
28 29 30 31 32 32 31 30 30 29 30 31 31 33 34 33 31 30 30 29 30 32

GFSNIL_sfc_dewp_111.txt.gz
Dewpoint
50 62 61 60 60 60 59 59 60 61 61 61 61 60 60 60 60 60 60 59 59 59
50 59 61 60 60 60 60 59 60 61 60 60 60 60 60 59 59 60 60 60 60 58
52 55 62 61 60 59 60 59 59 59 59 58 58 58 58 58 59 59 59 59 58 58
55 57 62 61 60 59 59 59 58 58 57 57 57 57 57 57 58 58 58 59 58 57
46 49 59 60 60 59 59 59 58 58 57 57 57 57 57 57 58 58 58 58 58 57
42 43 46 52 59 59 59 58 58 58 57 57 57 57 57 57 57 58 58 58 58 57
39 41 41 43 47 58 58 58 57 57 57 56 56 56 56 57 57 57 57 58 58 57
37 38 38 38 38 41 57 58 57 57 57 57 56 54 56 56 56 56 56 56 56 57
35 36 36 36 36 36 37 41 47 47 47 45 41 38 39 46 56 56 56 55 56 56
34 34 34 34 34 34 34 34 35 37 39 38 38 38 40 41 49 48 46 47 52 46
31 32 32 33 33 33 33 33 32 33 34 35 35 35 36 36 37 36 35 36 38 40
30 30 31 31 31 32 32 32 32 32 32 33 33 35 34 34 34 32 32 33 35 36
28 28 29 30 30 31 31 31 31 30 31 32 32 34 34 33 32 31 31 31 32 34
25 27 27 28 29 29 29 29 29 29 30 30 31 32 33 33 32 31 30 30 30 32

GFSNIL_sfc_dewp_114.txt.gz
Dewpoint
50 52 62 61 61 61 61 61 62 62 62 61 62 62 62 61 61 61 61 60 60 59
49 52 52 61 61 60 60 60 59 61 61 61 61 61 61 61 60 60 60 60 60 59
48 53 52 56 60 60 60 59 59 60 61 61 61 61 60 60 60 59 59 59 59 59
44 46 53 55 61 61 60 59 59 60 60 60 59 59 59 59 58 58 58 58 58 57
42 43 44 47 49 61 60 60 59 59 59 59 58 58 58 57 57 57 56 56 58 58
39 40 41 42 44 46 59 59 59 59 58 58 57 57 57 56 56 57 57 57 58 58
37 38 39 39 40 41 43 52 58 58 58 58 57 57 57 56 56 57 57 57 58 58
35 36 36 37 38 38 38 39 41 52 57 57 57 54 56 56 56 56 56 57 57 57
33 33 34 35 36 36 36 36 36 37 39 40 40 38 40 51 56 56 55 55 56 56
31 32 32 32 33 33 34 35 35 35 35 35 35 36 37 40 52 52 47 48 52 49
29 30 30 31 31 32 32 33 33 33 34 34 34 35 35 35 37 36 36 36 38 42
27 28 28 29 30 30 30 30 31 31 32 32 32 34 34 33 33 32 32 34 36 37
26 27 27 28 28 30 30 30 30 29 30 31 31 33 34 33 32 31 31 32 32 34
23 25 25 26 28 28 28 29 29 28 29 29 30 31 32 32 30 30 30 30 30 32

GFSNIL_sfc_dewp_120.txt.gz
Dewpoint
53 54 55 58 60 64 64 64 65 65 65 65 65 65 66 66 65 65 65 64 64 62
49 50 52 54 56 57 65 64 65 65 64 64 65 64 65 65 64 64 65 65 65 63
45 47 49 52 54 56 57 62 64 64 64 64 64 64 63 63 63 63 63 63 63 63
42 43 44 46 47 50 53 54 63 63 63 63 63 62 62 62 62 62 62 62 62 62
39 39 41 42 43 45 48 50 56 62 62 62 62 62 61 61 61 61 61 62 61 61
37 37 38 39 40 41 43 44 46 47 51 59 61 61 61 61 60 60 60 61 61 61
35 36 36 37 37 39 39 40 41 41 41 42 41 41 43 49 59 60 60 60 61 60
34 34 35 36 36 36 36 37 37 38 37 38 37 36 38 41 47 56 59 59 59 59
34 33 33 34 34 34 34 34 35 35 34 34 35 35 36 39 47 45 52 56 58 58
31 32 33 32 32 32 33 33 33 33 33 33 33 34 35 36 38 37 37 38 40 43
30 30 31 32 33 34 33 33 32 32 32 32 32 33 33 35 37 35 34 34 35 36
29 30 30 31 32 33 33 34 33 33 32 32 31 32 32 33 34 33 33 32 34 34
30 30 30 32 32 33 34 33 34 33 32 31 32 31 31 31 30 30 28 30 31 32
30 31 32 32 33 32 33 33 32 32 32 32 32 31 30 29 32 32 29 27 28 29

GFSNIL_sfc_dewp_123.txt.gz
Dewpoint
54 58 59 58 59 63 64 64 65 65 66 66 65 65 65 64 64 65 64 64 65 63
50 54 55 56 58 58 59 61 66 66 66 66 65 65 65 64 65 65 65 66 66 64
47 48 49 50 51 52 54 56 57 65 66 65 64 65 65 64 65 65 64 64 64 64
44 45 45 45 46 48 51 51 53 59 64 64 64 63 63 63 63 63 62 63 63 62
39 40 40 41 42 45 46 47 47 49 50 57 61 63 62 61 61 62 62 62 61 62
37 37 37 37 37 39 40 41 41 42 43 41 42 42 44 47 57 61 61 62 62 61
35 36 36 36 36 36 36 37 37 38 37 38 37 37 38 41 45 50 56 61 61 61
36 35 35 35 35 35 35 35 35 36 35 35 35 35 37 40 45 48 48 51 59 60
34 34 35 34 35 34 34 34 34 34 34 33 33 34 36 38 39 39 39 40 43 46
32 33 34 34 34 33 33 33 32 33 33 32 32 33 34 35 35 35 34 34 35 37
31 31 32 32 33 34 34 33 32 32 32 32 30 32 33 32 33 32 32 32 32 33
29 30 30 31 32 33 33 34 33 33 32 32 32 31 31 32 31 30 30 30 31 31
32 32 32 33 33 34 33 33 34 34 33 31 31 30 30 31 31 32 31 30 30 30
33 33 33 34 35 34 35 34 34 33 33 33 32 31 29 29 31 31 31 30 30 30

GFSNIL_sfc_dewp_126.txt.gz
Dewpoint
51 55 56 55 59 62 64 64 65 64 64 65 64 64 64 63 64 63 63 62 62 62
47 48 51 52 52 56 56 57 59 63 65 65 64 64 64 64 63 63 63 63 62 62
43 45 47 48 48 50 50 51 53 54 61 63 64 64 64 64 63 63 63 63 63 63
40 41 42 42 44 45 45 45 47 48 49 50 54 59 63 63 63 63 63 63 62 62
38 38 39 38 40 41 41 42 42 42 43 43 42 43 46 49 57 61 61 62 62 60
36 36 36 37 37 37 38 39 38 38 38 38 39 39 41 43 46 50 53 59 61 61
35 35 36 36 36 36 36 36 36 36 36 36 36 38 39 44 46 46 47 47 48 50
35 36 35 35 34 35 34 34 34 34 33 33 34 35 38 40 39 39 39 40 39 42
34 34 34 34 34 33 33 32 33 32 31 31 31 34 34 35 35 34 33 34 35 37
31 31 32 32 32 32 32 32 31 31 31 30 31 33 34 33 32 31 31 31 31 32
30 29 29 30 31 31 31 31 31 30 30 30 30 31 32 33 32 31 30 30 30 30
29 29 31 30 31 31 31 32 32 30 28 28 28 30 30 31 31 30 31 31 30 30
31 30 29 30 31 32 31 31 32 32 30 29 27 29 30 29 29 29 29 29 29 29
31 29 30 29 28 28 30 28 28 29 30 29 27 26 27 28 29 29 28 28 29 30